Skip Page Navigation
NASA JPL Caltech
NASA Logo - Jet Propulsion Laboratory + View the NASA Portal
+ Center for Near-Earth Object Studies
JPL Home Earth Solar System Stars & Galaxies Technology
JPL Solar System Dynamics
BODIES ORBITS EPHEMERIDES TOOLS PHYSICAL DATA DISCOVERY FAQ SITE MAP
JPL Small-Body Database Browser
Search: [ help ]  
351432 (2005 GO150)
Classification: Main-belt Asteroid          SPK-ID: 2351432
Ephemeris | Orbit Diagram | Orbital Elements | Mission Design | Physical Parameters | Discovery Circumstances | Close-Approach Data ]

[ show orbit diagram ]
Orbital Elements at Epoch 2459200.5 (2020-Dec-17.0) TDB
Reference: JPL 17 (heliocentric ecliptic J2000)
 Element Value Uncertainty (1-sigma)   Units 
e .03995683858556449 5.6082e-08  
a 2.748195877846066 2.2877e-08 au
q 2.638386658753457 1.6393e-07 au
i 6.640729181495829 4.7634e-06 deg
node 76.70683361846517 4.873e-05 deg
peri 323.9015125444317 8.2992e-05 deg
M 336.8744935155009 6.5806e-05 deg
tp 2459307.395323302330
(2021-Apr-02.89532330)
0.00030404 TDB
period 1664.063721788458
4.56
2.0778e-05
5.689e-08
d
yr
n .2163378693293601 2.7013e-09 deg/d
Q 2.858005096938675 2.3791e-08 au
  Orbit Determination Parameters
   # obs. used (total)      242  
   data-arc span      6668 days (18.26 yr)  
   first obs. used      2002-10-05  
   last obs. used      2021-01-06  
   planetary ephem.      DE431  
   SB-pert. ephem.      SB431-N16  
   condition code      0  
   norm. resid. RMS      .6089  
   source      ORB  
   producer      Otto Matic  
   solution date      2021-Feb-24 20:26:09  

Additional Information
 Earth MOID = 1.64951 au 
 Jupiter MOID = 2.31948 au 
 T_jup = 3.336 
[ hide covariance matrix ]
Orbital Elements at Epoch 2457895.5 (2017-May-22.0) TDB
Reference: JPL 17 (heliocentric ecliptic J2000)
 Element Value Uncertainty (1-sigma)   Units 
e .04194998287332527 5.6497e-08  
q 2.633240366508339 1.6536e-07 au
tp 2457629.669498557039
(2016-Aug-29.16949856)
0.00028835 TDB
node 76.73495924077592 4.8698e-05 deg
peri 321.2277526461996 7.9902e-05 deg
i 6.64366707360354 4.766e-06 deg
  Orbit Determination Parameters
   # obs. used (total)      242  
   data-arc span      6668 days (18.26 yr)  
   first obs. used      2002-10-05  
   last obs. used      2021-01-06  
   planetary ephem.      DE431  
   SB-pert. ephem.      SB431-N16  
   condition code      0  
   norm. resid. RMS      .6089  
   source      ORB  
   producer      Otto Matic  
   solution date      2021-Feb-24 20:26:09  

Additional Information
 Jupiter MOID = 2.31948 au 
 T_jup = 3.336 
Orbit Covariance (6×6)
  e q tp node peri i
e 3.19190641556723E-15 -9.272334328067156E-15 -5.598923788663858E-13 -6.689077701151557E-15 -1.877271879442641E-14 -4.494220711083295E-15
q -9.272334328067156E-15 2.734377383513056E-14 4.409644958306625E-13 2.001800449167027E-14 -1.964548164149898E-13 1.338617994754848E-14
tp -5.598923788663858E-13 4.409644958306625E-13 8.314393825114463E-8 -2.818732669575514E-11 1.829928403088383E-8 1.599355166953356E-11
node -6.689077701151557E-15 2.001800449167027E-14 -2.818732669575514E-11 2.371520362359891E-9 -2.36186993000762E-9 -2.48001945598334E-11
peri -1.877271879442641E-14 -1.964548164149898E-13 1.829928403088383E-8 -2.36186993000762E-9 6.384301766578043E-9 2.803269545478772E-11
i -4.494220711083295E-15 1.338617994754848E-14 1.599355166953356E-11 -2.48001945598334E-11 2.803269545478772E-11 2.271464325736996E-11

Ephemeris | Orbit Diagram | Orbital Elements | Mission Design | Physical Parameters | Discovery Circumstances | Close-Approach Data ]

Physical Parameter Table
Parameter Symbol Value Units Sigma Reference Notes
absolute magnitude H 16.6   n/a MPO437487  

351432 (2005 GO150)          Discovered 2005-Apr-11 by Spacewatch at Kitt Peak
Reference: 20130127/Numbers.arcLast Updated: 2013-01-31

[ hide close-approach data ]
Close-Approach Data   ...sorted by Date/Time (TDB)
Date/Time (TDB) Time Uncertainty
(days_HH:MM)
Body Nominal Distance (au) Minimum Distance (au) Maximum Distance (au) V-relative (km/s) V-infinity (km/s) JD (TDB) Time Uncertainty (minutes) Semi-major axis (km) Semi-minor axis (km) range-LOV angle (deg) N-sigma BP Orbit Ref. Reference Modified
2159-Jul-17 03:13 00:13 Hebe 0.0333671738783181 0.0333100610518479 0.0334243031495112 4.4634107905519 4.46341074881009 2509815.634085837 13.1792074869828 3077.29502075484 66.3381041309151 22.3110578302123 28589.472544325 T 17 CATAB v2.0f-lin.ifort 2021-Feb-24 20:26:09 2021-Feb-24 20:26
Ephemeris | Orbit Diagram | Orbital Elements | Mission Design | Physical Parameters | Discovery Circumstances | Close-Approach Data ]
ABOUT SSD CREDITS/AWARDS PRIVACY/COPYRIGHT GLOSSARY LINKS
FirstGov 2021-Mar-04 03:57 UT
(server date/time)  
NASA Home Page
Site Manager:   Ryan S. Park
Webmaster  Alan B. Chamberlin